FW7254 Weather Reports


time (UTC)temp
F
wind
direction
speed
knots
gust
knots
rain 1hr
in
rain 24hr
in
rain mn
in
humidity
%
barometer
mb
20260504184836 57 15 2.6 0.0 0.00 0.00 0.00 48 1013.6
20260504183336 56 360 3.5 0.0 0.00 0.00 0.00 52 1013.3
20260504181823 56 355 1.7 0.0 0.00 0.00 0.00 53 1013.1
20260504180349 57 5 0.9 0.0 0.00 0.00 0.00 52 1012.8
20260504174812 57 5 3.5 0.0 0.00 0.00 0.00 51 1012.3
20260504173318 56 342 4.3 0.0 0.00 0.00 0.00 51 1011.8
20260504171826 56 241 2.6 0.0 0.00 0.00 0.00 52 1011.4
20260504170332 56 355 2.6 0.0 0.00 0.00 0.00 52 1011.3
20260504160334 58 360 2.6 0.0 0.00 0.00 0.00 51 1009.6
20260504150330 60 350 2.6 0.0 0.00 0.00 0.41 53 1008.4
20260504140331 61 360 2.6 0.0 0.00 0.00 0.41 55 1007.1
20260504130325 63 13 0.9 0.0 0.00 0.00 0.41 53 1005.7
20260504110312 69 57 0.9 0.0 0.00 0.00 0.41 47 1001.6
20260504100320 71 103 0.0 0.0 0.00 0.00 0.41 54 999.8
20260504081819 76 130 1.7 0.0 0.00 0.00 0.41 41 996.3
20260504080326 76 284 3.5 0.0 0.00 0.00 0.41 38 995.8
20260504070327 76 132 1.7 0.0 0.00 0.00 0.41 47 994.9
20260504050330 77 226 2.6 0.0 0.00 0.00 0.41 60 994.2
20260504044818 77 121 3.5 0.0 0.00 0.00 0.41 59 994.1
20260504043317 77 180 2.6 0.0 0.00 0.00 0.41 58 994.1
20260504041852 77 263 4.3 0.0 0.00 0.00 0.41 58 994.2
20260504040356 77 252 5.2 0.0 0.00 0.00 0.41 56 994.1
20260504034815 77 184 4.3 0.0 0.00 0.00 0.41 58 994.1
20260504033322 78 232 4.3 0.0 0.00 0.00 0.41 56 994.3
20260504031829 79 250 5.2 0.0 0.00 0.00 0.41 57 994.2
20260504030328 80 187 5.2 0.0 0.00 0.00 0.41 57 994.3
20260504024819 80 242 7.0 0.0 0.00 0.00 0.41 56 994.4
20260504023315 80 213 7.0 0.0 0.00 0.00 0.41 59 994.2
20260504021822 80 276 6.1 0.0 0.00 0.00 0.41 62 994.3
20260504020320 80 235 5.2 0.0 0.00 0.00 0.41 63 994.2
20260504014832 79 272 4.3 0.0 0.00 0.00 0.41 64 994.8
20260504013330 79 158 2.6 0.0 0.00 0.00 0.41 67 995.3
20260504011836 78 119 2.6 0.0 0.00 0.00 0.41 69 995.3
20260504010321 78 98 2.6 0.0 0.00 0.00 0.41 69 995.4
20260504004829 78 114 1.7 0.0 0.00 0.00 0.41 71 995.8
20260504003336 76 291 1.7 0.0 0.00 0.00 0.41 76 996.3
20260504001815 75 261 2.6 0.0 0.00 0.00 0.41 77 996.3
20260504000321 74 138 3.5 0.0 0.00 0.00 0.41 80 996.3
20260503234825 73 242 3.5 0.0 0.00 0.00 0.41 85 996.5
20260503233328 72 259 3.5 0.0 0.00 0.00 0.41 88 996.6
20260503231816 71 80 2.6 0.0 0.00 0.00 0.41 91 996.4
20260503230323 70 149 3.5 0.0 0.00 0.00 0.41 92 996.7
20260503224827 70 244 3.5 0.0 0.00 0.00 0.41 94 996.7
20260503223330 70 105 2.6 0.0 0.00 0.00 0.41 94 996.7
20260503221838 70 106 1.7 0.0 0.00 0.00 0.41 95 996.7
20260503220315 69 113 1.7 0.0 0.00 0.00 0.41 95 996.6
20260503214844 69 119 1.7 0.0 0.00 0.00 0.41 94 996.4
20260503213349 70 124 1.7 0.0 0.00 0.00 0.41 95 995.8
20260503211814 69 125 2.6 0.0 0.00 0.00 0.41 94 996.0
20260503210319 69 148 3.5 0.0 0.00 0.00 0.40 94 996.0
20260503204825 69 105 2.6 0.0 0.00 0.00 0.39 94 995.5
20260503203331 69 120 4.3 0.0 0.00 0.00 0.38 94 995.5
20260503201831 69 142 3.5 0.0 0.00 0.00 0.35 94 995.2
20260503200321 69 360 2.6 0.0 0.00 0.00 0.28 94 996.1
20260503194829 69 82 1.7 0.0 0.00 0.00 0.20 93 996.5
20260503193332 69 112 6.1 0.0 0.00 0.00 0.12 94 996.6
20260503191837 68 130 4.3 0.0 0.00 0.00 0.12 94 996.9
20260503190316 68 61 3.5 0.0 0.00 0.00 0.11 94 997.2